GW6837 Weather Reports


Display with metric or nautical units.
time (UTC)temp
F
wind
direction
speed
MPH
gust
MPH
rain 1hr
in
rain 24hr
in
rain mn
in
humidity
%
barometer
mb
20260507142630 49 259 6.0 17.0 0.00 0.00 0.00 71 1009.5
20260507142127 49 282 9.0 14.0 0.00 0.00 0.00 70 1009.2
20260507141623 48 283 8.0 13.0 0.00 0.00 0.00 69 1009.6
20260507141120 48 283 13.0 15.0 0.00 0.00 0.00 70 1009.6
20260507140617 48 290 10.0 12.0 0.00 0.00 0.00 69 1009.5
20260507140114 48 296 15.0 17.0 0.00 0.00 0.00 69 1009.2
20260507135611 48 282 12.0 21.0 0.00 0.00 0.00 68 1009.6
20260507135109 48 264 6.0 19.0 0.00 0.00 0.00 68 1009.5
20260507134605 48 277 13.0 19.0 0.00 0.00 0.00 69 1009.6
20260507134101 48 276 13.0 22.0 0.00 0.00 0.00 71 1009.5
20260507133557 48 282 10.0 19.0 0.00 0.00 0.00 71 1009.5
20260507133055 48 284 7.0 13.0 0.00 0.00 0.00 73 1009.4
20260507132552 48 277 9.0 11.0 0.00 0.00 0.00 73 1009.8
20260507132048 48 268 13.0 19.0 0.00 0.00 0.00 74 1009.7
20260507131545 48 284 10.0 11.0 0.00 0.00 0.00 75 1009.8
20260507131042 48 225 13.0 15.0 0.00 0.00 0.00 75 1009.8
20260507130539 48 282 10.0 15.0 0.00 0.00 0.00 74 1009.9
20260507130037 48 288 12.0 13.0 0.00 0.00 0.00 74 1009.9
20260507125535 48 278 11.0 15.0 0.00 0.00 0.00 73 1009.8
20260507125032 48 243 10.0 13.0 0.00 0.00 0.00 74 1009.6
20260507124529 47 293 5.0 8.0 0.00 0.00 0.00 75 1009.7
20260507124026 47 293 11.0 13.0 0.00 0.00 0.00 74 1009.7
20260507123525 47 276 5.0 9.0 0.00 0.00 0.00 76 1009.6
20260507123021 47 278 6.0 8.0 0.00 0.00 0.00 76 1009.7
20260507122516 47 277 7.0 8.0 0.00 0.00 0.00 76 1009.6
20260507122012 46 283 5.0 7.0 0.00 0.00 0.00 75 1009.7
20260507121508 46 281 6.0 6.0 0.00 0.00 0.00 76 1009.6
20260507121004 46 260 5.0 9.0 0.00 0.00 0.00 76 1009.7
20260507120500 46 264 4.0 7.0 0.00 0.00 0.00 78 1009.8
20260507115957 46 287 6.0 6.0 0.00 0.00 0.00 79 1009.9
20260507115454 45 281 7.0 10.0 0.00 0.00 0.00 78 1009.9
20260507114949 45 274 5.0 7.0 0.00 0.00 0.00 80 1009.8
20260507114446 45 281 5.0 7.0 0.00 0.00 0.00 80 1009.5
20260507113943 45 264 5.0 6.0 0.00 0.00 0.00 82 1009.6
20260507113440 44 242 6.0 6.0 0.00 0.00 0.00 83 1009.7
20260507112937 44 233 5.0 6.0 0.00 0.00 0.00 84 1009.9
20260507112435 44 247 5.0 6.0 0.00 0.00 0.00 83 1009.7
20260507111931 44 305 3.0 4.0 0.00 0.00 0.00 85 1009.5
20260507111429 43 268 5.0 8.0 0.00 0.00 0.00 84 1009.7
20260507110925 43 291 7.0 8.0 0.00 0.00 0.00 84 1009.6
20260507110421 43 293 6.0 9.0 0.00 0.00 0.00 84 1009.5
20260507105918 43 292 6.0 10.0 0.00 0.00 0.00 84 1009.5
20260507105415 44 298 5.0 8.0 0.00 0.00 0.00 83 1009.7
20260507104912 44 284 6.0 9.0 0.00 0.00 0.00 80 1009.6
20260507104408 43 302 5.0 6.0 0.00 0.00 0.00 82 1009.4
20260507103904 43 285 4.0 4.0 0.00 0.00 0.00 83 1009.3
20260507103401 43 302 3.0 4.0 0.00 0.00 0.00 84 1009.4
20260507102857 43 280 4.0 4.0 0.00 0.00 0.00 85 1009.4
20260507102354 42 286 1.0 3.0 0.00 0.00 0.00 87 1009.4
20260507101850 42 274 4.0 5.0 0.00 0.00 0.00 88 1009.7
20260507101350 42 241 4.0 4.0 0.00 0.00 0.00 89 1009.6
20260507100848 42 289 2.0 3.0 0.00 0.00 0.00 90 1009.5
20260507100346 41 20 1.0 2.0 0.00 0.00 0.00 92 1009.6
20260507095844 41 274 3.0 3.0 0.00 0.00 0.00 91 1009.5
20260507095340 41 284 2.0 4.0 0.00 0.00 0.00 90 1009.4
20260507094837 42 299 7.0 8.0 0.00 0.00 0.00 90 1009.3
20260507094333 41 295 7.0 9.0 0.00 0.00 0.00 91 1009.3
20260507093831 41 279 5.0 6.0 0.00 0.00 0.00 91 1009.7
20260507093329 42 280 5.0 7.0 0.00 0.00 0.00 91 1009.5
20260507092826 42 240 5.0 6.0 0.00 0.00 0.00 91 1009.5
20260507092323 42 281 5.0 5.0 0.00 0.00 0.00 90 1009.5
20260507091819 42 278 6.0 9.0 0.00 0.00 0.00 90 1009.5
20260507091316 42 288 7.0 9.0 0.00 0.00 0.00 91 1009.4
20260507090811 42 286 9.0 11.0 0.00 0.00 0.00 91 1009.1
20260507090308 42 312 9.0 10.0 0.00 0.00 0.00 91 1009.3
20260507085805 42 307 9.0 11.0 0.00 0.00 0.00 90 1009.1
20260507085305 42 293 5.0 7.0 0.00 0.00 0.00 91 1009.2
20260507084759 42 296 4.0 4.0 0.00 0.00 0.00 91 1009.3
20260507084255 42 224 0.0 4.0 0.00 0.00 0.00 89 1009.4
20260507083753 43 248 4.0 7.0 0.00 0.00 0.00 88 1009.1
20260507083249 42 291 7.0 9.0 0.00 0.00 0.00 89 1008.9
20260507082745 43 278 6.0 9.0 0.00 0.00 0.00 88 1009.1
20260507082241 43 307 7.0 9.0 0.00 0.00 0.00 88 1008.8
20260507081738 43 314 4.0 5.0 0.00 0.00 0.00 88 1008.9
20260507081234 43 269 4.0 5.0 0.00 0.00 0.00 88 1009.4
20260507080731 43 289 7.0 9.0 0.00 0.00 0.00 88 1009.4
20260507080227 43 278 7.0 11.0 0.00 0.00 0.00 88 1008.9
20260507075723 43 303 11.0 12.0 0.00 0.00 0.00 87 1009.1
20260507075219 43 307 8.0 9.0 0.00 0.00 0.00 88 1009.1
20260507074715 44 282 6.0 8.0 0.00 0.00 0.00 87 1009.0
20260507074214 43 267 6.0 7.0 0.00 0.00 0.00 88 1009.2
20260507073710 44 281 6.0 9.0 0.00 0.00 0.00 87 1009.0
20260507073206 44 281 7.0 9.0 0.00 0.00 0.00 87 1008.8
20260507072705 44 309 6.0 6.0 0.00 0.00 0.00 87 1008.8
20260507072201 44 276 6.0 9.0 0.00 0.00 0.00 87 1008.6
20260507071659 44 345 2.0 5.0 0.00 0.00 0.00 87 1008.6
20260507071155 44 309 5.0 13.0 0.00 0.00 0.00 87 1008.6
20260507070652 44 316 8.0 11.0 0.00 0.00 0.00 87 1008.5
20260507070149 44 320 11.0 14.0 0.00 0.00 0.00 86 1008.4
20260507065645 44 284 7.0 15.0 0.00 0.00 0.00 87 1008.6
20260507065142 44 293 12.0 13.0 0.00 0.00 0.00 87 1008.7
20260507064640 44 285 10.0 15.0 0.00 0.00 0.00 87 1008.8
20260507064138 44 297 9.0 11.0 0.00 0.00 0.00 86 1008.4
20260507063636 44 273 10.0 17.0 0.00 0.00 0.00 85 1008.7
20260507063132 44 282 10.0 14.0 0.00 0.00 0.00 86 1008.6
20260507062629 44 288 11.0 17.0 0.00 0.00 0.00 86 1009.0
20260507062127 44 279 8.0 16.0 0.00 0.00 0.00 87 1008.8
20260507061624 44 283 13.0 17.0 0.00 0.00 0.00 87 1008.3
20260507061122 44 289 7.0 11.0 0.00 0.00 0.00 89 1008.4
20260507060620 44 267 7.0 12.0 0.00 0.00 0.00 89 1008.7
20260507060116 45 242 5.0 13.0 0.00 0.00 0.00 88 1008.6
20260507055612 45 246 14.0 17.0 0.00 0.00 0.00 89 1008.5
20260507055108 45 276 9.0 16.0 0.00 0.00 0.00 90 1008.6
20260507054604 45 287 13.0 16.0 0.00 0.00 0.00 89 1008.5
20260507054101 45 267 9.0 15.0 0.00 0.00 0.00 91 1008.2
20260507053559 45 276 11.0 19.0 0.00 0.00 0.00 95 1008.1
20260507053058 45 270 9.0 17.0 0.00 0.00 0.00 95 1008.0
20260507052555 45 257 7.0 8.0 0.00 0.00 0.00 95 1008.3
20260507052051 45 290 4.0 8.0 0.00 0.00 0.00 95 1008.5
20260507051549 45 255 5.0 7.0 0.00 0.00 0.00 95 1008.3
20260507051046 45 267 4.0 7.0 0.00 0.00 0.00 95 1008.1
20260507050542 45 289 6.0 7.0 0.00 0.00 0.00 94 1008.1
20260507050039 45 257 6.0 8.0 0.00 0.00 0.00 94 1008.4
20260507045536 45 253 3.0 7.0 0.00 0.00 0.00 93 1008.3
20260507045033 45 261 7.0 9.0 0.00 0.00 0.00 93 1008.3
20260507044529 45 256 7.0 12.0 0.00 0.00 0.00 92 1008.3
20260507044027 46 271 8.0 12.0 0.00 0.00 0.00 92 1008.3
20260507043522 46 283 11.0 11.0 0.00 0.00 0.00 93 1008.3
20260507043020 46 271 6.0 15.0 0.00 0.00 0.00 92 1008.3
20260507042516 46 281 6.0 11.0 0.00 0.00 0.00 92 1008.4
20260507042011 46 284 6.0 13.0 0.00 0.00 0.00 92 1008.4
20260507041509 46 316 7.0 9.0 0.00 0.00 0.00 92 1008.2
20260507041005 46 313 7.0 11.0 0.00 0.00 0.00 93 1008.5
20260507040501 46 278 4.0 11.0 0.00 0.00 0.00 93 1008.4
20260507035957 46 282 8.0 11.0 0.00 0.29 0.29 94 1008.4
20260507035454 46 316 14.0 14.0 0.00 0.29 0.29 95 1008.3
20260507034950 46 295 7.0 11.0 0.00 0.29 0.29 95 1008.3
20260507034447 46 312 6.0 9.0 0.00 0.29 0.29 95 1008.1
20260507033945 46 282 6.0 11.0 0.00 0.29 0.29 94 1008.1
20260507033443 46 300 8.0 13.0 0.00 0.29 0.29 94 1008.2
20260507032940 47 278 6.0 12.0 0.00 0.29 0.29 93 1008.1
20260507032437 47 267 11.0 13.0 0.00 0.29 0.29 94 1008.4
20260507031933 47 262 10.0 13.0 0.00 0.29 0.29 94 1008.3
20260507031429 47 268 7.0 11.0 0.02 0.29 0.29 93 1008.5
20260507030926 47 268 9.0 14.0 0.02 0.29 0.29 93 1008.2
20260507030424 47 252 9.0 15.0 0.00 0.28 0.28 93 1008.0
20260507025921 47 274 11.0 13.0 0.02 0.28 0.28 94 1008.1
20260507025418 48 283 13.0 15.0 0.00 0.28 0.28 94 1008.3
20260507024916 48 265 11.0 14.0 0.00 0.28 0.28 94 1008.4
20260507024413 48 268 9.0 13.0 0.00 0.28 0.28 94 1008.2
20260507023908 48 269 8.0 14.0 0.00 0.28 0.28 94 1008.1
20260507023405 48 262 13.0 18.0 0.00 0.28 0.28 94 1008.2
20260507022903 49 270 11.0 15.0 0.00 0.28 0.28 94 1008.0
20260507022359 49 290 10.0 16.0 0.00 0.28 0.28 94 1008.2
20260507021855 49 270 9.0 20.0 0.00 0.28 0.28 94 1007.9
20260507021350 50 251 20.0 22.0 0.02 0.28 0.28 94 1007.9
20260507020848 50 282 15.0 15.0 0.02 0.28 0.28 94 1007.8
20260507020345 50 286 11.0 17.0 0.00 0.28 0.28 94 1007.7
20260507015842 50 286 11.0 15.0 0.00 0.28 0.28 94 1007.7
20260507015340 51 275 9.0 14.0 0.02 0.28 0.28 94 1007.7
20260507014837 51 255 13.0 19.0 0.02 0.28 0.28 94 1007.6
20260507014333 51 265 16.0 19.0 0.00 0.27 0.27 95 1007.6
20260507013830 52 287 11.0 14.0 0.00 0.27 0.27 95 1007.4
20260507013327 52 275 12.0 18.0 0.00 0.27 0.27 96 1007.4
20260507012825 52 277 11.0 19.0 0.00 0.27 0.27 96 1007.6
20260507012320 52 292 12.0 14.0 0.00 0.27 0.27 96 1007.3
20260507011817 52 287 7.0 14.0 0.00 0.27 0.27 96 1007.5
20260507011314 53 277 8.0 12.0 0.00 0.27 0.27 96 1007.5
20260507010814 53 274 7.0 9.0 0.00 0.27 0.27 96 1007.3
20260507010310 53 304 6.0 10.0 0.00 0.27 0.27 96 1007.5
20260507005807 53 309 7.0 9.0 0.00 0.27 0.27 96 1007.2
20260507005305 53 311 7.0 10.0 0.02 0.27 0.27 96 1007.2
20260507004800 53 288 7.0 11.0 0.02 0.27 0.27 96 1007.4
20260507004258 53 306 11.0 12.0 0.00 0.27 0.27 96 1007.1
20260507003754 53 306 9.0 13.0 0.00 0.27 0.27 96 1007.2
20260507003249 53 308 11.0 14.0 0.05 0.27 0.27 96 1007.0
20260507002745 53 282 10.0 16.0 0.12 0.26 0.26 96 1006.9
20260507002242 54 319 13.0 16.0 0.33 0.26 0.26 95 1006.9
20260507001739 55 294 11.0 16.0 0.26 0.24 0.24 95 1006.7
20260507001236 58 280 14.0 14.0 0.00 0.20 0.20 96 1006.7
20260507000732 58 229 10.0 12.0 0.00 0.20 0.20 96 1006.4
20260507000228 58 204 10.0 12.0 0.00 0.20 0.20 96 1006.2
20260506235725 58 236 3.0 12.0 0.00 0.20 0.20 97 1006.1
20260506235220 58 202 6.0 10.0 0.00 0.20 0.20 97 1006.4
20260506234718 58 213 7.0 11.0 0.00 0.20 0.20 97 1006.0
20260506234215 58 241 6.0 11.0 0.00 0.20 0.20 97 1006.2
20260506233712 58 216 11.0 15.0 0.00 0.20 0.20 96 1006.1
20260506233209 58 195 7.0 11.0 0.05 0.20 0.20 96 1006.2
20260506232706 58 231 6.0 10.0 0.05 0.20 0.20 96 1006.2
20260506232200 58 240 7.0 15.0 0.02 0.19 0.19 96 1006.0
20260506231658 58 210 19.0 19.0 0.02 0.19 0.19 96 1006.2
20260506231156 58 225 10.0 17.0 0.02 0.19 0.19 95 1005.8
20260506230652 59 203 9.0 16.0 0.00 0.18 0.18 95 1006.0
20260506230149 59 213 11.0 19.0 0.00 0.18 0.18 95 1005.8
20260506225646 59 195 11.0 17.0 0.00 0.18 0.18 95 1005.7
20260506225143 59 192 12.0 14.0 0.00 0.18 0.18 95 1005.8
20260506224639 59 204 8.0 16.0 0.00 0.18 0.18 94 1005.9
20260506224136 59 199 14.0 18.0 0.00 0.18 0.18 94 1006.0
20260506223632 59 188 8.0 15.0 0.00 0.18 0.18 94 1006.0
20260506223128 59 197 10.0 15.0 0.00 0.18 0.18 94 1005.9
20260506222626 59 196 6.0 12.0 0.00 0.18 0.18 94 1006.1
20260506222122 59 221 9.0 17.0 0.00 0.18 0.18 94 1006.1
20260506221619 59 206 10.0 18.0 0.00 0.18 0.18 94 1006.1
20260506221117 59 197 9.0 19.0 0.00 0.18 0.18 94 1006.2
20260506220614 59 218 6.0 16.0 0.00 0.18 0.18 94 1006.1
20260506220109 59 183 13.0 16.0 0.00 0.18 0.18 94 1006.4
20260506215606 59 195 11.0 14.0 0.00 0.18 0.18 94 1006.2
20260506215101 59 184 14.0 18.0 0.00 0.18 0.18 94 1006.4
20260506214559 59 193 8.0 15.0 0.00 0.18 0.18 94 1006.4
20260506214056 59 207 11.0 17.0 0.00 0.18 0.18 94 1006.4
20260506213554 59 199 15.0 17.0 0.00 0.18 0.18 94 1006.4
20260506213051 59 203 12.0 17.0 0.00 0.18 0.18 94 1006.5
20260506212547 59 207 15.0 20.0 0.00 0.18 0.18 93 1006.4
20260506212042 59 192 17.0 18.0 0.00 0.18 0.18 94 1006.5
20260506211538 59 204 20.0 25.0 0.00 0.18 0.18 94 1006.5
20260506211036 59 179 13.0 15.0 0.02 0.18 0.18 95 1006.5
20260506210532 59 199 13.0 15.0 0.02 0.18 0.18 95 1006.6
20260506210029 59 223 8.0 14.0 0.00 0.18 0.18 95 1006.7
20260506205525 59 177 6.0 8.0 0.00 0.18 0.18 95 1006.5
20260506205021 59 184 9.0 11.0 0.00 0.18 0.18 95 1006.8
20260506204519 59 154 11.0 16.0 0.00 0.18 0.18 95 1006.6
20260506204016 59 174 5.0 9.0 0.00 0.18 0.18 95 1006.8
20260506203514 59 145 6.0 9.0 0.02 0.18 0.18 95 1006.9
20260506203010 59 152 6.0 9.0 0.02 0.18 0.18 95 1006.8
20260506202508 59 137 4.0 9.0 0.00 0.18 0.18 95 1007.0
20260506202004 59 178 5.0 9.0 0.00 0.18 0.18 95 1007.0
20260506201502 59 191 10.0 11.0 0.00 0.18 0.18 95 1007.2
20260506200958 59 168 2.0 5.0 0.00 0.18 0.18 95 1007.3
20260506200454 59 193 9.0 13.0 0.00 0.18 0.18 95 1007.4
20260506195951 59 204 6.0 12.0 0.00 0.18 0.18 95 1007.3
20260506195448 59 194 7.0 9.0 0.00 0.18 0.18 95 1007.2
20260506194944 59 209 8.0 12.0 0.02 0.18 0.18 95 1007.6
20260506194442 59 222 7.0 11.0 0.12 0.18 0.18 95 1007.4
20260506193938 59 220 9.0 15.0 0.14 0.17 0.17 95 1007.7
20260506193436 59 218 9.0 11.0 0.09 0.16 0.16 95 1007.5
20260506192932 59 203 6.0 11.0 0.05 0.15 0.15 94 1007.7
20260506192429 59 201 10.0 14.0 0.05 0.14 0.14 94 1007.6
20260506191926 59 215 13.0 13.0 0.05 0.14 0.14 94 1007.7
20260506191422 59 185 2.0 11.0 0.05 0.13 0.13 94 1007.7
20260506190919 59 192 10.0 13.0 0.05 0.13 0.13 94 1007.8
20260506190416 59 196 7.0 13.0 0.05 0.13 0.13 94 1007.9
20260506185913 59 185 11.0 16.0 0.05 0.12 0.12 93 1008.0
20260506185410 59 169 11.0 15.0 0.05 0.12 0.12 93 1007.8
20260506184907 59 200 5.0 16.0 0.00 0.11 0.11 93 1007.9
20260506184404 59 205 15.0 19.0 0.02 0.11 0.11 93 1007.9
20260506183901 59 197 13.0 19.0 0.02 0.11 0.11 93 1007.9
20260506183356 59 184 11.0 13.0 0.02 0.11 0.11 93 1008.1
20260506182854 59 203 11.0 14.0 0.02 0.11 0.11 93 1008.2
20260506182351 59 208 8.0 11.0 0.05 0.10 0.10 93 1008.2
20260506181848 59 180 8.0 15.0 0.07 0.10 0.10 93 1008.2
20260506181346 59 203 14.0 16.0 0.05 0.09 0.09 92 1008.5
20260506180843 59 215 12.0 15.0 0.07 0.09 0.09 92 1008.7
20260506180339 60 207 15.0 16.0 0.07 0.09 0.09 91 1008.8
20260506175835 60 181 11.0 15.0 0.07 0.08 0.08 91 1008.5
20260506175332 60 210 6.0 14.0 0.09 0.07 0.07 90 1008.6
20260506174829 60 223 8.0 15.0 0.07 0.07 0.07 89 1008.7
20260506174327 60 225 10.0 14.0 0.07 0.06 0.06 89 1008.8
20260506173824 60 221 7.0 12.0 0.07 0.06 0.06 88 1008.8
20260506173321 61 213 6.0 12.0 0.05 0.05 0.05 88 1008.8
20260506172818 61 246 5.0 11.0 0.05 0.04 0.04 88 1008.7
20260506172315 61 234 6.0 10.0 0.07 0.04 0.04 87 1008.9
20260506171812 61 203 9.0 9.0 0.07 0.04 0.04 84 1008.7
20260506171309 61 192 6.0 11.0 0.05 0.03 0.03 83 1008.7
20260506170807 62 179 6.0 6.0 0.05 0.02 0.02 83 1008.6
20260506170303 62 187 4.0 6.0 0.07 0.02 0.02 83 1008.8
20260506165802 62 191 7.0 7.0 0.07 0.02 0.02 82 1008.5
20260506165259 62 198 4.0 4.0 0.05 0.01 0.01 80 1008.7
20260506164755 62 194 3.0 6.0 0.02 0.00 0.00 79 1008.7
20260506164252 62 152 7.0 9.0 0.00 0.00 0.00 78 1008.5
20260506163749 63 152 6.0 6.0 0.00 0.00 0.00 77 1008.7
20260506163244 63 144 6.0 7.0 0.00 0.00 0.00 77 1009.1
20260506162740 63 139 6.0 8.0 0.00 0.00 0.00 77 1008.9
20260506162238 62 155 2.0 5.0 0.00 0.00 0.00 77 1008.9
20260506161735 62 177 4.0 8.0 0.00 0.00 0.00 77 1009.2
20260506161232 63 149 7.0 10.0 0.00 0.00 0.00 76 1009.2
20260506160730 63 144 5.0 6.0 0.00 0.00 0.00 76 1009.2
20260506160226 62 181 4.0 7.0 0.00 0.00 0.00 77 1009.4
20260506155725 62 160 5.0 7.0 0.00 0.00 0.00 77 1009.6
20260506155222 62 224 6.0 6.0 0.00 0.00 0.00 77 1010.1
20260506153329 63 219 7.0 8.0 0.00 0.00 0.00 74 1010.0
20260506152826 62 176 4.0 7.0 0.00 0.00 0.00 75 1010.0
20260506152323 62 176 11.0 12.0 0.00 0.00 0.00 75 1010.4
20260506151822 62 192 8.0 10.0 0.00 0.00 0.00 76 1010.4
20260506151318 62 183 8.0 11.0 0.00 0.00 0.00 76 1010.3
20260506150815 62 222 4.0 8.0 0.00 0.00 0.00 76 1010.1
20260506150312 61 168 6.0 10.0 0.00 0.00 0.00 77 1010.3
20260506145809 61 164 6.0 11.0 0.00 0.00 0.00 77 1010.0
20260506145306 61 147 6.0 8.0 0.00 0.00 0.00 77 1010.1
20260506144803 61 151 8.0 8.0 0.00 0.00 0.00 77 1009.9
20260506144259 61 163 6.0 8.0 0.00 0.00 0.00 77 1010.3
20260506143757 61 180 3.0 4.0 0.00 0.00 0.00 77 1010.3
20260506143254 61 159 5.0 6.0 0.00 0.00 0.00 77 1010.1
20260506142753 60 183 5.0 6.0 0.00 0.00 0.00 77 1010.0